KD6VPH Weather Reports


time (UTC)temp
F
wind
direction
speed
knots
gust
knots
rain 1hr
in
rain 24hr
in
rain mn
in
humidity
%
barometer
mb
20260503223514 86 325 1.7 4.3 0.00 0.00 0.00 39 1009.7
20260503222515 85 133 0.9 1.7 0.00 0.00 0.00 42 1009.6
20260503221514 85 324 0.9 4.3 0.00 0.00 0.00 40 1009.6
20260503215514 85 358 0.9 2.6 0.00 0.00 0.00 40 1009.9
20260503214514 84 25 0.9 3.5 0.00 0.00 0.00 45 1009.9
20260503213514 84 326 0.9 5.2 0.00 0.00 0.00 43 1010.1
20260503212514 83 56 1.7 1.7 0.00 0.00 0.00 44 1010.2
20260503211514 83 345 0.9 2.6 0.00 0.00 0.00 44 1010.3
20260503210514 83 115 0.9 1.7 0.00 0.00 0.00 45 1010.2
20260503205514 82 326 0.9 2.6 0.00 0.00 0.00 47 1010.3
20260503203514 81 1 0.9 1.7 0.00 0.00 0.00 48 1010.5
20260503202514 81 321 0.9 2.6 0.00 0.00 0.00 46 1010.5
20260503201514 81 350 0.9 2.6 0.00 0.00 0.00 48 1010.8
20260503200514 80 342 0.9 1.7 0.00 0.00 0.00 50 1010.8
20260503195514 80 77 0.9 2.6 0.00 0.00 0.00 48 1011.0
20260503194514 79 300 0.9 3.5 0.00 0.00 0.00 50 1011.0
20260503192514 78 356 0.9 1.7 0.00 0.00 0.00 53 1011.2
20260503191514 77 326 0.9 4.3 0.00 0.00 0.00 53 1011.2
20260503190514 77 335 0.9 2.6 0.00 0.00 0.00 53 1011.4
20260503184514 76 321 0.9 3.5 0.00 0.00 0.00 55 1011.5
20260503183514 75 300 0.9 2.6 0.00 0.00 0.00 56 1011.6
20260503182514 74 41 0.9 1.7 0.00 0.00 0.00 55 1011.6
20260503181514 73 12 0.9 1.7 0.00 0.00 0.00 56 1011.7
20260503180514 73 0 0.9 3.5 0.00 0.00 0.00 57 1011.7
20260503175514 72 324 0.0 1.7 0.00 0.00 0.00 58 1011.7
20260503174514 70 354 0.9 2.6 0.00 0.00 0.00 60 1011.8
20260503173514 70 331 0.9 3.5 0.00 0.00 0.00 62 1011.8
20260503172514 68 353 0.9 3.5 0.00 0.00 0.00 63 1012.0
20260503171514 68 354 0.9 2.6 0.00 0.00 0.00 63 1011.7
20260503170514 67 353 0.9 0.9 0.00 0.00 0.00 65 1011.8
20260503150515 53 257 0.0 1.7 0.00 0.00 0.00 87 1012.1
20260503130515 50 265 0.0 0.0 0.00 0.00 0.00 87 1011.7
20260503110515 51 265 0.0 0.0 0.00 0.00 0.00 84 1012.1
20260503081516 55 265 0.0 0.0 0.00 0.00 0.00 82 1012.4
20260503072516 56 265 0.0 0.0 0.00 0.00 0.00 79 1012.6
20260503070516 57 265 0.0 0.0 0.00 0.00 0.00 78 1012.6
20260503054516 59 265 0.0 0.0 0.00 0.00 0.00 72 1012.7
20260503053516 59 265 0.0 0.0 0.00 0.00 0.00 70 1012.6
20260503052516 60 265 0.0 0.0 0.00 0.00 0.00 71 1012.6
20260503050516 61 265 0.0 0.0 0.00 0.00 0.00 69 1012.6
20260503045516 62 265 0.0 0.0 0.00 0.00 0.00 68 1012.5
20260503044516 62 265 0.0 0.0 0.00 0.00 0.00 66 1012.4
20260503043516 63 265 0.0 0.0 0.00 0.00 0.00 66 1012.3
20260503042516 63 265 0.0 0.0 0.00 0.00 0.00 65 1012.4
20260503041517 64 265 0.0 0.0 0.00 0.00 0.00 64 1012.3
20260503040554 64 265 0.0 0.0 0.00 0.00 0.00 64 1012.1
20260503040517 64 265 0.0 0.0 0.00 0.00 0.00 64 1012.1
20260503034517 65 265 0.0 0.0 0.00 0.00 0.00 64 1011.8
20260503033517 66 265 0.0 1.7 0.00 0.00 0.00 62 1011.6
20260503032516 67 8 0.0 0.0 0.00 0.00 0.00 62 1011.5
20260503031517 67 8 0.0 0.0 0.00 0.00 0.00 62 1011.5
20260503030516 68 8 0.0 0.0 0.00 0.00 0.00 61 1011.4
20260503025517 69 8 0.0 0.0 0.00 0.00 0.00 61 1011.2
20260503024517 70 8 0.0 0.9 0.00 0.00 0.00 60 1011.1
20260503023517 70 8 0.0 2.6 0.00 0.00 0.00 59 1011.0
20260503022517 71 294 0.0 1.7 0.00 0.00 0.00 58 1010.9
20260503021517 72 294 0.0 1.7 0.00 0.00 0.00 58 1011.1
20260503020517 73 306 0.0 1.7 0.00 0.00 0.00 54 1011.0
20260503015517 74 280 0.0 0.9 0.00 0.00 0.00 55 1011.0
20260503014517 75 99 0.0 0.0 0.00 0.00 0.00 57 1011.1
20260503013517 76 355 0.0 1.7 0.00 0.00 0.00 54 1011.0
20260503012517 76 142 0.0 1.7 0.00 0.00 0.00 51 1011.1
20260503011517 77 34 0.0 1.7 0.00 0.00 0.00 53 1011.2
20260503010517 77 50 0.0 1.7 0.00 0.00 0.00 52 1011.1
20260503005517 77 26 0.0 0.9 0.00 0.00 0.00 51 1011.2
20260503004517 77 129 0.0 1.7 0.00 0.00 0.00 53 1011.2
20260503003517 77 149 0.9 1.7 0.00 0.00 0.00 53 1011.3
20260503002517 78 88 0.0 0.9 0.00 0.00 0.00 54 1011.5
20260503001517 78 63 0.0 2.6 0.00 0.00 0.00 51 1011.4
20260503000517 78 330 0.0 2.6 0.00 0.00 0.00 53 1011.5
20260502235517 77 115 0.0 1.7 0.00 0.00 0.00 57 1011.5
20260502234518 76 160 0.0 1.7 0.00 0.00 0.00 55 1011.6
20260502233607 76 281 0.9 2.6 0.00 0.00 0.00 55 1011.7
20260502233517 76 281 0.9 2.6 0.00 0.00 0.00 55 1011.7
20260502232517 75 248 0.0 1.7 0.00 0.00 0.00 59 1011.9
20260502231517 75 124 0.0 1.7 0.00 0.00 0.00 59 1012.1
20260502230517 74 217 0.0 1.7 0.00 0.00 0.00 59 1012.2
20260502225517 74 190 0.0 1.7 0.00 0.00 0.00 58 1012.3
20260502224517 74 70 0.0 1.7 0.00 0.00 0.00 57 1012.5